Location: Archamps
(46.1365°N, 6.1329°E)
Time: 18:31:02
(UTC+00:00)

Cosmos 1340 Rocket - Pass Details

Date: 28 January 2023
Orbit: 514 x 558 km, 81.2° (Epoch: 29 March)

Event Time Altitude Azimuth Distance (km) Brightness Sun altitude
Rises 17:53:37 0° 181° (S) 2,619 6.5 -13.8°
Reaches altitude 10° 17:55:44 10° 178° (S) 1,739 5.5 -14.2°
Maximum altitude 17:59:30 61° 98° (E) 594 2.7 -14.8°
Drops below altitude 10° 18:03:20 10° 18° (NNE) 1,771 5.1 -15.5°
Enters shadow 18:03:49 - 17° (NNE) 1,969 5.4 -15.6°
